This is the latest recevied weather packets stored in our database for station/object WB3EGK. If no packets are shown the sender has not sent any weather packets the latest 10 day(s).
| Time | Temp. | Humidity | Pressure | Rain* | Wind** | Luminosity | Snow |
|---|---|---|---|---|---|---|---|
| 1777482298 | 13.33° C | 1% | 1005.4 hPa | 1.27 mm | - | 202 W/m² | - |
| 1777481995 | 13.33° C | 1% | 1005.6 hPa | 0 mm | - | 191 W/m² | - |
| 1777481693 | 13.33° C | 1% | 1005.8 hPa | 1.78 mm | - | 321 W/m² | - |
| 1777481390 | 12.78° C | 1% | 1006 hPa | 1.78 mm | - | 329 W/m² | - |
| 1777481086 | 12.78° C | 1% | 1006 hPa | 0 mm | - | 218 W/m² | - |
| 1777480783 | 12.78° C | 1% | 1006.1 hPa | 0 mm | - | 204 W/m² | - |
| 1777480479 | 13.33° C | 1% | 1006 hPa | 0 mm | - | 260 W/m² | - |
| 1777480176 | 12.78° C | 1% | 1006.4 hPa | 0 mm | - | 253 W/m² | - |
| 1777479872 | 12.78° C | 1% | 1006.3 hPa | 0 mm | - | 148 W/m² | - |
| 1777479569 | 12.78° C | 1% | 1006.2 hPa | 0 mm | - | 189 W/m² | - |
| 1777479267 | 12.78° C | 1% | 1006.3 hPa | 0 mm | - | 138 W/m² | - |
| 1777478963 | 12.78° C | 1% | 1006.3 hPa | 1.27 mm | - | 241 W/m² | - |
| 1777478660 | 12.78° C | 1% | 1006.3 hPa | 1.27 mm | - | 350 W/m² | - |
| 1777478356 | 12.78° C | 1% | 1006.4 hPa | 0 mm | - | 365 W/m² | - |
| 1777478053 | 12.78° C | 1% | 1006.7 hPa | 0 mm | - | 218 W/m² | - |
| 1777477749 | 12.22° C | 1% | 1006.5 hPa | 3.56 mm | - | 201 W/m² | - |
| 1777477445 | 12.22° C | 1% | 1007.1 hPa | 6.1 mm | - | 150 W/m² | - |
| 1777477142 | 12.22° C | 1% | 1007.2 hPa | 6.1 mm | - | 110 W/m² | - |
| 1777476839 | 12.22° C | 1% | 1007.4 hPa | 3.05 mm | - | 57 W/m² | - |
| 1777476536 | 12.22° C | 1% | 1007.8 hPa | 3.05 mm | - | 19 W/m² | - |
| 1777476232 | 12.78° C | 1% | 1007.5 hPa | 1.78 mm | - | 35 W/m² | - |
| 1777475928 | 12.22° C | 1% | 1007.4 hPa | 1.27 mm | - | 48 W/m² | - |
| 1777475624 | 12.22° C | 1% | 1007.6 hPa | 1.27 mm | - | 50 W/m² | - |
| 1777475321 | 12.22° C | 1% | 1007.5 hPa | 0 mm | - | 47 W/m² | - |
| 1777475016 | 12.22° C | 1% | 1007.5 hPa | 0 mm | - | 52 W/m² | - |
* Rain latest hour (hover to see other rain measurements)
** Current wind speed in m/s (hover to see current wind gust speed)